Regional Weather Roundup
Issued by NWS

Home | Current Version | Previous Version | Text Only | Print | Product List | Glossary On
Versions: 1 2 3 4 5 6 7 8 9 10 11 12 13 14 15 16 17 18 19 20 21 22 23 24 25 26 27 28 29 30 31 32 33 34 35 36 37 38 39 40 41 42 43 44 45 46 47 48 49 50
000
ASUS44 KOUN 141910
RWROK

WEATHER ROUNDUP FOR OKLAHOMA
NATIONAL WEATHER SERVICE NORMAN OK
100 PM CST THU DEC 14 2017

NOTE: "FAIR" INDICATES FEW OR NO CLOUDS BELOW 12,000 FEET WITH NO
      SIGNIFICANT WEATHER AND/OR OBSTRUCTIONS TO VISIBILITY.

OKZ001>007-009>012-014-015-017-142000-
NORTHWEST OKLAHOMA AND THE PANHANDLE

CITY           SKY/WX    TMP DP  RH WIND       PRES   REMARKS
GAGE           CLOUDY    46  25  43 NW12      30.16F
GUYMON         MOSUNNY   43  34  70 NW14      30.18F
ENID/WOODRING  MOSUNNY   50  30  46 NW12      30.14F
$$

OKZ016-021>023-033>039-044-045-142000-
SOUTHWEST OKLAHOMA

CITY           SKY/WX    TMP DP  RH WIND       PRES   REMARKS
LAWTON/REGL    SUNNY     53  29  39 N17       30.15F
LAWTON/FT SILL SUNNY     53  32  45 N12       30.13F
FREDERICK      PTSUNNY   53  28  38 N15       30.13F
CLINTON        MOSUNNY   48  25  40 N12G18    30.16F
HOBART         PTSUNNY   51  28  41 N12       30.17F
ALTUS AFB      SUNNY     53  22  30 N15       30.16F
$$

OKZ018>020-024>031-142000-
CENTRAL OKLAHOMA

CITY           SKY/WX    TMP DP  RH WIND       PRES   REMARKS
OKLAHOMA CITY  MOSUNNY   48  26  42 N14       30.14F
OKC/WILEY POST SUNNY     49  28  44 N13G21    30.15F
OKC/TINKER AFB SUNNY     49  26  41 N18       30.13F
STILLWATER     SUNNY     50  25  37 N12G17    30.15F
GUTHRIE        SUNNY     48  27  44 NW8       30.16F
$$

OKZ008-013-054>072-142000-
NORTHEAST OKLAHOMA

CITY           SKY/WX    TMP DP  RH WIND       PRES   REMARKS
TULSA          PTSUNNY   46  26  45 N13       30.14F
TULSA/JONES    MOSUNNY   48  25  40 N9        30.14F
PONCA CITY     SUNNY     48  25  40 NW10      30.14F
BARTLESVILLE   MOSUNNY   47  24  40 N12G20    30.15F
MUSKOGEE       PTSUNNY   48  28  46 NW12      30.13F
$$

OKZ032-040>043-046>053-073>077-142000-
SOUTH CENTRAL/SOUTHEAST OKLAHOMA

CITY           SKY/WX    TMP DP  RH WIND       PRES   REMARKS
ARDMORE/DWNTWN SUNNY     54  27  35 NE8       30.11F
MCALESTER      SUNNY     54  29  38 N15G21    30.10F
$$





USA.gov is the U.S. government's official web portal to all federal, state and local government web resources and services.